Lapse_Rate
6.5 6.4 6.3 6.3 6.2 5.9 5.8 5.9 6.0 5.9 6.0 6.1 6.1 6.1 6.1 6.1 6.0 5.8 5.9 6.1 6.1 6.2 6.2 6.4 6.4 6.3 6.2 6.3 6.2 6.2 6.2 6.3 6.2 6.1 6.0 5.9 5.9 5.7 5.9 6.0 5.9 5.8 5.8
6.7 6.6 6.4 6.4 6.3 5.8 5.6 5.7 5.8 5.9 5.9 6.0 6.1 6.1 6.1 6.0 6.0 6.0 6.1 6.1 6.2 6.3 6.3 6.3 6.2 6.3 6.2 6.3 6.3 6.2 6.1 6.1 6.1 6.0 5.9 5.9 5.7 5.8 5.8 5.7 5.7 5.7 5.8
6.8 6.6 6.6 6.5 6.5 5.9 5.7 5.7 5.8 5.8 5.9 5.9 6.1 6.2 6.1 5.9 5.8 5.9 6.0 6.1 6.2 6.3 6.3 6.4 6.1 6.0 6.2 6.2 6.3 6.2 6.2 6.1 6.0 5.9 5.9 5.8 5.7 5.7 5.7 5.5 5.6 5.7 5.8
6.8 6.6 6.5 6.5 6.4 6.0 5.7 5.7 5.8 5.9 6.0 6.1 6.1 6.0 6.0 5.7 5.5 5.8 6.0 6.1 6.3 6.3 6.2 6.4 6.2 6.0 6.1 6.1 6.2 6.3 6.2 6.1 5.9 5.9 5.8 5.8 5.7 5.6 5.6 5.6 5.5 5.7 5.7
6.8 6.6 6.6 6.5 6.3 6.1 5.8 5.6 5.9 6.0 6.2 6.3 6.2 6.0 5.8 5.6 5.5 5.7 5.9 6.1 6.1 6.3 6.4 6.4 6.3 6.3 6.0 6.0 6.0 6.0 6.1 6.0 5.9 5.8 5.7 5.6 5.7 5.7 5.6 5.6 5.6 5.8 5.7
6.5 6.5 6.6 6.5 6.3 5.9 5.7 5.7 6.0 6.1 6.3 6.3 6.1 5.9 5.6 5.5 5.6 5.7 5.7 5.9 6.2 6.2 6.3 5.9 6.3 6.1 5.9 5.8 5.9 5.8 6.0 5.9 5.9 5.9 5.8 5.6 5.6 5.7 5.6 5.6 5.6 5.7 5.8
6.4 6.4 6.4 6.2 6.2 6.1 5.9 5.8 5.9 6.2 6.3 6.2 5.9 5.6 5.4 5.5 5.7 5.8 5.8 6.0 6.2 6.5 6.4 6.2 5.9 5.4 5.9 5.6 5.8 5.7 5.9 6.0 6.0 5.8 5.7 5.7 5.6 5.5 5.5 5.5 5.6 6.0 5.6
6.4 6.3 6.3 6.2 6.3 6.1 5.9 5.9 6.1 6.3 6.3 6.2 5.7 5.4 5.3 5.4 5.6 5.7 6.0 6.2 6.2 6.1 5.3 5.8 5.7 5.4 5.2 5.3 5.4 5.5 5.6 5.7 5.7 5.6 5.7 5.7 5.7 5.6 5.5 5.6 5.6 5.8 5.6
6.4 6.2 6.3 6.2 6.2 6.0 5.9 5.8 6.1 6.3 6.2 6.1 5.5 5.5 5.5 5.6 5.6 5.5 5.9 5.9 5.9 5.7 5.6 5.6 5.6 5.0 5.4 5.5 5.3 5.4 5.4 5.2 5.3 5.5 5.5 5.6 5.7 5.6 5.6 5.5 5.6 5.7 5.8
6.4 6.1 6.2 6.3 6.2 5.9 6.0 5.9 6.1 6.3 6.2 6.0 5.2 5.4 5.3 5.4 5.6 5.7 5.6 5.7 5.6 5.4 5.4 5.7 4.9 4.9 5.4 5.3 5.3 5.1 5.1 5.0 5.1 5.2 5.5 5.5 5.5 5.4 5.4 5.4 5.8 6.0 5.9
6.6 6.4 6.2 6.2 6.1 6.0 5.9 5.8 6.0 6.1 6.1 6.0 5.6 5.6 5.4 5.7 5.9 5.8 5.5 5.4 5.8 5.5 4.9 5.3 5.1 5.2 5.3 5.4 5.3 5.3 5.3 5.1 4.9 5.3 5.4 5.5 5.4 5.2 5.2 5.3 5.7 5.7 5.8
6.6 6.5 6.3 6.2 6.2 6.0 5.8 5.9 5.9 6.1 6.1 6.0 5.8 5.7 5.6 5.5 5.8 5.8 5.5 5.2 5.6 5.4 5.3 5.1 4.9 5.3 5.4 5.5 5.3 5.2 5.2 5.0 5.0 5.3 5.4 5.5 5.7 5.5 5.5 5.5 5.6 5.8 5.8
6.8 6.6 6.4 6.3 6.2 6.1 5.9 6.0 5.9 6.0 6.0 6.0 5.9 5.8 5.3 5.1 5.5 5.8 5.2 5.1 5.0 5.1 5.4 5.1 5.0 5.4 5.4 5.1 5.0 5.0 5.1 4.9 5.3 5.2 5.5 5.6 5.5 5.3 5.2 5.3 5.4 5.7 5.7
6.8 6.6 6.5 6.4 6.4 6.2 5.9 5.9 5.9 6.0 6.1 6.0 6.0 5.8 5.2 4.7 5.1 5.6 5.6 5.3 4.7 5.2 5.1 5.3 5.4 5.4 5.1 4.8 5.0 4.9 5.1 5.0 5.1 5.1 5.4 5.5 5.3 5.2 4.7 5.3 5.5 5.4 5.5
6.8 6.6 6.5 6.5 6.5 6.3 5.9 5.9 5.9 5.9 6.1 5.9 6.1 5.9 5.3 4.9 4.9 5.0 5.2 5.3 5.1 5.0 4.7 5.0 5.4 5.4 5.2 5.2 5.1 5.0 4.9 5.0 5.0 5.2 5.4 5.6 5.4 5.4 5.4 5.5 5.5 5.5 5.6
6.7 6.4 6.4 6.3 6.3 6.2 5.9 5.8 5.7 5.8 6.0 5.9 6.0 5.8 5.2 5.0 4.7 4.8 5.0 5.2 5.4 5.0 4.9 5.1 5.3 5.3 5.2 5.2 4.9 5.2 5.2 5.3 5.3 5.2 5.2 5.1 5.3 5.5 5.8 6.0 5.7 5.8 5.8
6.4 6.1 6.1 6.1 6.1 6.0 5.9 5.9 5.7 5.8 5.9 5.9 5.9 6.1 5.4 5.1 4.7 4.9 4.9 4.9 5.2 5.1 5.3 5.3 5.3 5.3 5.3 5.0 4.9 4.3 4.5 4.8 5.1 4.8 4.9 5.5 5.7 5.6 5.8 5.9 5.6 5.8 5.9
5.9 6.1 6.0 5.9 6.0 6.0 5.9 5.8 5.7 5.8 5.9 6.1 6.0 6.1 5.6 5.5 5.0 5.0 4.9 5.2 5.4 4.9 5.0 5.4 5.1 5.2 5.2 5.0 5.0 4.7 4.6 4.9 4.9 5.2 5.2 5.6 5.6 5.5 5.7 5.9 5.6 5.7 5.8
5.3 5.8 5.9 5.7 5.7 5.7 5.8 5.8 5.6 5.7 5.9 6.0 6.1 6.1 5.9 5.7 5.3 4.9 4.9 4.8 5.1 5.2 5.1 5.0 5.0 5.0 5.2 5.1 4.8 4.5 4.3 4.9 5.0 5.1 5.2 5.4 5.5 5.3 5.3 5.5 5.5 5.6 5.5
5.2 5.3 5.6 5.6 5.5 5.5 5.7 5.7 5.7 5.7 6.0 6.0 6.0 6.0 6.0 6.1 6.0 5.3 4.8 4.8 4.6 4.8 4.8 4.8 4.9 4.8 4.4 4.3 4.1 4.1 4.3 4.7 5.0 5.1 5.3 5.4 5.6 5.6 5.4 5.5 5.5 5.6 5.6
5.2 5.7 5.6 5.6 5.4 5.1 5.6 5.8 5.9 6.0 6.1 6.0 5.9 5.8 5.9 5.9 6.1 5.6 5.2 4.8 4.7 4.6 4.9 4.9 4.4 4.3 4.4 4.0 4.3 4.6 4.5 4.3 4.9 5.1 5.3 5.3 5.5 5.8 5.7 5.7 5.5 5.5 5.6
5.2 5.2 5.4 5.7 5.6 5.0 5.4 5.5 5.5 5.6 5.7 5.6 5.7 5.7 5.8 5.8 5.9 5.7 5.3 5.3 4.9 4.6 4.4 4.6 4.5 4.3 4.1 4.3 4.7 4.7 4.7 4.8 4.8 5.1 5.3 5.2 5.3 5.8 6.1 5.9 5.8 5.5 5.6
5.1 5.2 5.4 5.3 5.9 5.1 5.4 5.3 5.2 5.1 5.2 5.5 5.6 5.7 5.8 5.7 5.5 5.5 5.4 5.2 5.0 4.9 4.5 4.5 4.4 4.4 4.0 4.4 4.7 5.0 5.0 5.0 4.9 5.1 5.2 5.3 5.4 5.9 6.2 5.9 5.9 5.6 5.7
5.0 5.0 5.0 5.1 5.4 5.7 5.4 5.3 5.2 5.7 5.6 5.7 5.7 5.6 5.5 5.7 5.5 5.3 5.3 5.3 4.9 4.7 4.2 3.8 3.6 4.0 4.2 4.6 4.9 4.9 4.9 4.9 5.0 5.1 5.1 5.2 5.4 5.9 6.0 6.1 6.1 5.9 5.8
5.0 5.1 5.1 5.2 5.3 5.8 5.7 5.2 5.7 5.7 5.4 5.2 5.3 5.4 5.3 5.3 5.5 5.3 5.2 5.0 4.9 4.7 4.6 4.6 4.6 4.6 4.6 4.6 4.6 4.9 5.0 4.9 4.9 4.9 4.9 5.0 5.0 5.1 5.5 5.8 5.9 6.1 6.2
5.1 5.3 5.3 5.3 5.2 5.6 5.4 5.5 5.2 5.6 5.6 5.3 5.3 5.4 5.5 5.3 5.4 5.4 5.2 5.1 5.0 5.0 5.0 5.0 4.9 4.8 4.7 4.6 4.7 4.8 4.9 5.1 5.2 5.2 5.5 5.7 5.7 5.8 5.8 5.7 5.5 5.4 5.4
Wind_Speed
7 14 18 17 16 14 15 12 12 13 12 11 10 9 8 8 10 9 8 8 9 11 11 12 15 14 14 15 14 14 13 13 14 16 16 17 20 21 22 18 21 21 21
12 16 18 17 16 13 11 11 11 12 11 11 10 9 8 8 9 9 9 9 9 10 12 14 17 16 16 16 16 15 15 15 16 17 18 18 18 20 19 18 24 22 23
12 15 18 15 15 13 10 10 11 11 11 11 9 8 6 7 9 9 9 9 10 11 11 13 17 17 17 17 17 17 16 16 17 21 21 19 19 18 19 24 22 24 25
11 14 17 16 15 13 9 7 10 10 10 9 8 8 7 7 8 10 10 10 10 11 11 13 16 17 18 18 18 19 19 18 19 21 15 18 19 19 21 23 23 24 25
12 13 16 16 15 14 11 6 8 9 8 8 7 8 9 10 10 10 9 8 9 10 10 11 18 20 19 19 20 19 18 17 21 16 17 16 16 21 23 23 23 24 23
12 13 19 16 14 11 9 10 8 9 8 8 8 9 11 12 12 10 6 6 5 6 11 16 19 20 20 21 21 20 17 15 10 16 17 19 17 22 22 23 23 26 26
12 11 15 16 15 12 10 8 7 6 8 7 8 9 10 12 12 11 8 8 6 5 10 19 22 24 21 21 22 20 16 12 15 14 15 15 18 22 23 23 23 26 28
12 11 14 13 14 10 10 8 6 7 6 7 7 10 12 12 12 10 9 7 6 7 9 20 27 24 21 21 21 19 15 16 17 14 15 15 21 23 24 24 24 25 25
11 10 10 13 12 9 7 5 7 6 5 6 6 8 10 6 5 8 12 10 9 8 10 13 24 24 20 18 13 11 9 18 16 15 16 15 24 26 27 28 28 28 28
10 11 11 10 13 12 11 8 6 6 4 8 4 8 16 13 4 6 7 13 13 12 21 23 30 20 21 18 17 17 17 21 18 18 16 20 27 29 30 30 31 30 29
10 9 10 10 11 10 10 9 8 15 15 13 12 15 13 8 4 2 13 12 17 9 24 30 35 26 22 22 17 18 16 15 17 16 17 28 30 30 30 30 29 29 27
13 11 9 10 10 9 7 10 10 12 10 10 9 11 7 9 10 8 8 21 22 24 28 34 34 25 19 16 16 16 15 18 17 18 22 30 30 30 30 28 27 27 25
10 8 11 11 11 8 8 6 5 5 5 5 6 9 9 6 7 8 11 11 10 26 18 23 20 16 15 15 15 14 17 16 15 20 24 29 29 27 27 26 25 23 23
13 9 9 9 10 9 7 7 6 5 4 5 3 10 7 4 4 5 5 12 9 17 15 14 14 16 16 14 15 13 17 18 18 20 23 27 28 26 26 24 22 22 21
14 11 9 13 13 9 10 7 7 6 5 7 8 10 9 5 5 4 7 10 9 14 15 9 12 12 10 13 12 17 18 20 22 20 21 28 25 24 24 23 21 21 21
15 11 9 13 13 11 10 9 8 7 9 8 7 7 12 9 5 6 7 7 7 15 14 14 9 9 7 10 6 16 17 20 21 21 20 24 22 22 21 21 20 19 19
12 13 11 12 13 12 13 9 7 6 7 7 7 10 10 10 9 6 7 7 8 15 16 14 13 13 9 9 7 12 15 18 19 19 18 20 18 20 20 19 19 19 17
11 11 11 8 12 12 12 9 7 8 6 6 7 9 12 12 11 8 7 7 11 14 12 8 9 9 9 9 8 8 8 13 15 19 18 16 15 16 18 18 17 17 17
10 8 11 12 11 11 12 9 8 10 7 7 10 10 13 15 13 9 7 7 12 8 8 9 8 9 10 9 9 8 8 8 12 14 15 15 14 16 14 18 18 15 15
23 3 8 11 10 11 10 8 7 7 7 7 9 9 17 14 15 12 7 7 10 7 8 7 11 9 10 10 11 9 8 6 10 10 13 13 13 13 13 13 14 15 15
19 17 13 11 10 9 9 8 8 8 8 8 8 14 16 16 18 12 8 8 7 8 7 9 9 13 10 11 9 9 8 7 7 6 10 10 10 11 11 10 11 11 13
20 18 17 14 13 9 9 9 6 8 8 8 8 11 14 16 16 13 12 9 10 8 8 10 12 9 8 7 6 6 4 3 4 5 5 6 8 9 9 10 9 9 10
20 20 17 16 16 10 12 9 6 8 7 8 9 9 10 14 14 13 12 11 11 9 9 10 12 14 9 1 6 3 4 3 5 2 3 3 5 5 9 9 9 8 10
19 19 18 17 16 12 13 12 16 12 12 10 9 9 9 13 12 14 13 11 11 9 11 10 10 9 9 8 4 3 3 7 3 4 1 3 2 5 5 7 8 8 8
18 17 17 18 15 14 14 13 13 14 10 10 9 13 11 11 11 12 13 12 11 8 10 11 12 9 8 7 4 3 3 3 5 3 4 4 2 3 4 6 6 6 6
18 18 18 19 17 19 10 14 16 17 15 11 12 11 9 9 9 11 11 10 10 10 10 9 7 8 7 7 6 5 5 3 5 3 3 6 6 4 3 5 5 7 7
Wind_Direction
161 144 169 167 168 175 176 186 196 194 192 184 194 194 194 193 191 190 192 196 199 194 186 180 163 152 146 141 137 128 123 123 122 120 121 123 125 125 128 131 118 111 107
152 150 169 166 169 178 169 189 202 200 184 188 198 197 199 203 206 197 195 200 208 205 194 181 167 155 152 143 134 131 133 132 129 123 122 120 125 128 134 131 111 115 109
149 151 166 164 170 173 179 194 217 180 182 189 195 194 198 214 213 202 199 205 204 204 206 192 176 161 148 141 138 135 130 127 127 130 139 130 128 129 119 107 115 116 110
154 154 165 168 168 173 166 198 188 177 180 182 180 192 204 204 203 204 202 201 199 199 200 193 178 156 150 144 142 136 136 139 145 146 137 131 135 129 122 119 122 118 113
158 159 156 166 171 173 160 137 164 172 177 180 185 201 209 200 197 192 186 180 190 194 185 185 183 158 152 149 142 138 144 157 159 145 122 120 129 133 128 128 122 120 118
161 162 138 165 168 173 161 161 166 173 181 178 192 211 218 206 204 190 188 210 188 178 180 178 177 165 152 151 141 145 147 156 130 108 113 123 126 131 129 124 122 117 112
164 161 154 170 173 172 175 162 157 181 185 183 209 220 221 214 206 213 197 176 175 188 176 166 167 162 154 151 142 146 148 131 116 110 117 118 122 121 114 107 109 109 104
165 162 155 172 178 172 172 179 181 214 196 194 207 225 228 225 213 218 195 210 203 162 182 172 174 143 160 145 142 142 138 123 117 114 114 114 122 116 110 104 99 99 103
164 170 163 175 179 185 169 181 219 224 192 200 197 224 231 237 215 239 230 219 216 211 151 130 122 119 122 100 100 91 114 119 109 104 103 110 111 110 106 104 99 97 96
172 178 178 171 175 177 174 168 189 202 214 113 153 125 109 98 104 223 204 212 197 152 151 138 127 139 113 108 97 83 107 106 102 97 97 112 107 104 100 97 93 90 88
186 182 188 176 178 170 166 145 154 123 117 116 124 128 143 115 74 333 220 161 141 165 171 160 136 134 113 96 90 84 97 86 92 89 99 103 100 97 94 93 91 89 88
189 200 184 179 169 170 125 130 140 142 150 139 154 157 109 101 73 51 203 149 142 130 146 146 125 115 110 109 86 76 82 91 83 92 88 92 93 93 91 89 88 88 90
193 189 188 187 168 143 147 143 148 149 135 109 137 116 98 99 44 58 83 56 106 125 99 101 103 105 104 109 99 98 95 87 92 89 96 95 93 91 91 90 90 92 92
190 186 186 191 169 171 162 155 153 165 140 107 139 127 112 101 68 66 85 91 50 91 96 104 105 103 99 91 103 97 94 90 89 91 90 92 94 95 93 96 96 93 91
196 185 203 187 185 158 173 164 142 160 141 134 155 149 116 98 93 79 84 93 91 86 97 105 114 114 108 119 119 115 102 97 94 91 84 87 91 97 97 98 98 96 96
193 183 185 210 183 167 162 158 152 159 124 136 129 119 141 115 102 111 102 101 88 98 95 109 111 109 105 101 110 114 112 110 106 101 94 85 89 96 99 99 98 98 98
201 171 181 211 186 180 161 144 145 140 139 138 129 113 106 118 119 110 111 106 108 110 110 105 100 100 96 92 82 108 107 106 108 110 101 94 83 82 99 99 98 98 99
212 183 168 199 195 178 163 143 153 142 145 139 131 125 128 114 121 111 110 111 114 115 114 111 115 107 105 103 98 89 91 97 96 98 107 108 104 86 76 95 100 102 101
215 169 176 186 204 176 163 154 147 152 155 160 147 140 134 127 120 116 116 114 117 118 117 119 112 115 106 100 89 72 80 87 94 100 97 90 91 96 88 79 78 91 101
359 144 189 185 217 171 159 156 145 167 158 160 155 153 145 139 124 119 120 120 116 111 112 108 118 112 110 107 94 80 66 58 87 95 98 99 98 102 106 109 87 68 84
353 357 319 185 200 174 164 160 155 170 159 162 157 154 156 150 141 130 131 131 124 126 121 124 117 121 116 124 112 90 73 76 86 89 97 99 97 98 103 97 103 101 82
346 344 335 331 192 196 169 169 167 171 164 158 150 159 157 155 150 145 145 145 140 134 133 140 137 129 132 182 124 112 118 92 59 65 77 106 105 105 99 97 99 106 106
348 342 334 324 317 191 173 162 166 156 160 157 164 161 158 158 158 151 154 154 155 146 151 148 143 145 154 69 116 101 141 153 127 95 98 111 120 113 108 108 110 108 99
346 339 333 327 316 280 181 169 172 173 172 173 166 160 162 161 163 160 156 158 155 156 156 160 149 150 149 149 85 59 49 124 151 149 167 131 134 129 124 129 123 126 125
349 346 340 334 325 304 186 174 176 175 176 166 164 163 164 161 163 164 162 157 158 157 158 158 157 159 162 147 137 144 112 92 127 147 144 157 137 125 123 119 113 125 123
354 355 351 347 342 343 205 179 190 184 171 169 169 165 167 163 161 167 168 161 160 156 156 154 153 157 148 158 136 153 153 159 169 144 121 146 137 157 135 143 156 149 150